Location: Bletchingley
(51.2333°N, 0.1000°W)
Time: 23:05:10
(UTC+00:00)

OBJECT-B - Pass Details

Date: 18 September 2020
Orbit: 421 x 433 km, 97.0° (Epoch: 09 October)

Event Time Altitude Azimuth Distance (km) Brightness Sun altitude
Exits shadow 19:01:25 13° 100° (E) 1,323 2.6 -9.3°
Maximum altitude 19:03:02 18° 65° (ENE) 1,110 2.4 -9.5°
Drops below altitude 10° 19:05:21 10° 19° (NNE) 1,525 3.5 -9.9°
Sets 19:07:46 0° 1° (N) 2,398 4.8 -10.2°
